STARLINK-32079 (60336 NORAD) Tracking and Keplerian Element Data

This shows tracking and keplerian element data for the satellite.

Feedback or suggestion? Click here.




ElementValue
Catalog60336
NameSTARLINK-32079
Epoch Orbit1108
Epoch Day286.44937221
Epoch Year2024
RAAN299.717
Inclination53.1619
Eccentricity0.0001461
Argument of Perigee100.4608
Mean Anonmoly259.6557
Mean Motion15.30179479
Decay Rate-3.391E-05
L11 60336U 24136H 24286.44937221 -.00003391 00000+0 -10246-3 0 9991
L22 60336 53.1619 299.7170 0001461 100.4608 259.6557 15.30179479 11086



Live tracking and technical data element details for STARLINK-32079 (NORAD 60336). STARLINK-32079 can be tracked NOW for your location showing map with azimuth and elevation plus other details from your city location.







IsCatalogInMostPopularTable: catalog: 60336, numindb: 8
Update: records affected: 1



GetName: 60336 STARLINK-32079

Hit Count: updated at: Tue, 03 Dec 2024 01:13:43 GMT